Time,TemperatureF,DewpointF,PressureIn,WindDirection,WindDirectionDegrees,WindSpeedMPH,WindSpeedGustMPH,Humidity,HourlyPrecipIn,Conditions,Clouds,dailyrainin,SoftwareType,DateUTC
2013-03-06 00:00:00,53.6,22.0,29.77,South,191,8.0,20.0,29,0.00,CLR,,0.00,WeatherDisplay:10.37,2013-03-06 08:00:00,
2013-03-06 00:10:00,52.0,23.7,29.77,SW,214,12.0,20.0,33,0.00,CLR,,0.00,WeatherDisplay:10.37,2013-03-06 08:10:00,
2013-03-06 00:20:00,51.7,25.6,29.77,South,177,9.0,18.0,36,0.00,CLR,,0.00,WeatherDisplay:10.37,2013-03-06 08:20:00,
2013-03-06 00:30:00,51.0,26.3,29.77,SSW,195,10.0,14.0,38,0.00,CLR,,0.00,WeatherDisplay:10.37,2013-03-06 08:30:00,
2013-03-06 00:40:00,50.5,27.7,29.77,SSW,194,10.0,20.0,41,0.00,CLR,,0.00,WeatherDisplay:10.37,2013-03-06 08:40:00,
2013-03-06 00:50:00,49.7,29.7,29.77,SSW,206,10.0,18.0,46,0.00,CLR,,0.00,WeatherDisplay:10.37,2013-03-06 08:50:00,
2013-03-06 01:00:00,48.9,29.0,29.78,SSW,205,7.0,15.0,46,0.00,CLR,,0.00,WeatherDisplay:10.37,2013-03-06 09:00:00,
2013-03-06 01:05:00,49.4,28.4,29.78,SSW,198,8.0,14.0,44,0.00,CLR,,0.00,WeatherDisplay:10.37,2013-03-06 09:05:00,
2013-03-06 01:10:00,49.4,28.4,29.78,South,190,5.0,16.0,44,0.00,CLR,,0.00,WeatherDisplay:10.37,2013-03-06 09:10:00,
2013-03-06 01:20:00,48.2,30.9,29.78,South,180,7.0,13.0,51,0.00,CLR,,0.00,WeatherDisplay:10.37,2013-03-06 09:20:00,
2013-03-06 01:30:00,47.6,30.3,29.78,SSW,199,8.0,14.0,51,0.00,CLR,,0.00,WeatherDisplay:10.37,2013-03-06 09:30:00,
2013-03-06 01:40:00,48.1,30.3,29.77,SSW,196,10.0,17.0,50,0.00,CLR,,0.00,WeatherDisplay:10.37,2013-03-06 09:40:00,
2013-03-06 01:50:00,48.2,30.4,29.77,South,187,9.0,16.0,50,0.00,CLR,,0.00,WeatherDisplay:10.37,2013-03-06 09:50:00,
2013-03-06 02:00:00,47.7,30.9,29.77,SSW,197,8.0,15.0,52,0.00,CLR,,0.00,WeatherDisplay:10.37,2013-03-06 10:00:00,
2013-03-06 02:05:00,47.4,30.2,29.78,South,191,9.0,18.0,51,0.00,CLR,,0.00,WeatherDisplay:10.37,2013-03-06 10:05:00,
2013-03-06 02:10:00,47.3,30.5,29.78,SSW,193,10.0,15.0,52,0.00,CLR,,0.00,WeatherDisplay:10.37,2013-03-06 10:10:00,
2013-03-06 02:20:00,46.8,31.0,29.78,SSW,207,12.0,18.0,54,0.00,CLR,,0.00,WeatherDisplay:10.37,2013-03-06 10:20:00,
2013-03-06 02:30:00,46.7,31.8,29.78,SSW,211,13.0,20.0,56,0.00,CLR,,0.00,WeatherDisplay:10.37,2013-03-06 10:30:00,
2013-03-06 02:40:00,46.4,32.0,29.79,SSW,196,12.0,21.0,57,0.00,CLR,,0.00,WeatherDisplay:10.37,2013-03-06 10:40:00,
2013-03-06 02:50:00,46.4,31.5,29.78,SSW,194,10.0,15.0,56,0.00,CLR,,0.00,WeatherDisplay:10.37,2013-03-06 10:50:00,
2013-03-06 03:00:00,46.5,30.7,29.77,SSW,196,3.0,12.0,54,0.00,CLR,,0.00,WeatherDisplay:10.37,2013-03-06 11:00:00,
2013-03-06 03:05:00,46.4,30.2,29.77,South,190,2.0,8.0,53,0.00,CLR,,0.00,WeatherDisplay:10.37,2013-03-06 11:05:00,
2013-03-06 03:10:00,46.2,30.5,29.77,South,188,8.0,13.0,54,0.00,CLR,,0.00,WeatherDisplay:10.37,2013-03-06 11:10:00,
2013-03-06 03:20:00,46.0,31.6,29.78,South,183,3.0,12.0,57,0.00,CLR,,0.00,WeatherDisplay:10.37,2013-03-06 11:20:00,
2013-03-06 03:30:00,46.4,31.5,29.78,South,183,6.0,11.0,56,0.00,CLR,,0.00,WeatherDisplay:10.37,2013-03-06 11:30:00,
2013-03-06 03:40:00,46.7,30.5,29.77,South,183,3.0,9.0,53,0.00,CLR,,0.00,WeatherDisplay:10.37,2013-03-06 11:40:00,
2013-03-06 03:50:00,47.0,29.8,29.77,SSE,167,3.0,8.0,51,0.00,CLR,,0.00,WeatherDisplay:10.37,2013-03-06 11:50:00,
2013-03-06 04:00:00,47.0,27.8,29.78,SSE,155,1.0,5.0,47,0.00,CLR,,0.00,WeatherDisplay:10.37,2013-03-06 12:00:00,
2013-03-06 04:05:00,46.8,28.6,29.78,SE,140,2.0,6.0,49,0.00,CLR,,0.00,WeatherDisplay:10.37,2013-03-06 12:05:00,
2013-03-06 04:10:00,46.5,27.3,29.77,SE,140,0.0,4.0,47,0.00,CLR,,0.00,WeatherDisplay:10.37,2013-03-06 12:10:00,
2013-03-06 04:20:00,50.3,23.0,29.77,SW,227,10.0,16.0,34,0.00,CLR,,0.00,WeatherDisplay:10.37,2013-03-06 12:20:00,
2013-03-06 04:30:00,52.2,22.4,29.77,SW,235,13.0,21.0,31,0.00,CLR,,0.00,WeatherDisplay:10.37,2013-03-06 12:30:00,
2013-03-06 04:40:00,51.4,23.3,29.78,SW,229,14.0,18.0,33,0.00,CLR,,0.00,WeatherDisplay:10.37,2013-03-06 12:40:00,
2013-03-06 04:50:00,53.2,22.5,29.77,WSW,254,12.0,15.0,30,0.00,CLR,,0.00,WeatherDisplay:10.37,2013-03-06 12:50:00,
2013-03-06 05:00:00,52.2,23.2,29.77,WSW,237,16.0,23.0,32,0.00,CLR,,0.00,WeatherDisplay:10.37,2013-03-06 13:00:00,
2013-03-06 05:10:00,52.2,23.2,29.78,SW,230,14.0,18.0,32,0.00,CLR,,0.00,WeatherDisplay:10.37,2013-03-06 13:10:00,
2013-03-06 05:20:00,52.2,24.6,29.79,SW,232,17.0,23.0,34,0.00,CLR,,0.00,WeatherDisplay:10.37,2013-03-06 13:20:00,
2013-03-06 05:30:00,51.6,24.8,29.80,SW,231,15.0,23.0,35,0.00,CLR,,0.00,WeatherDisplay:10.37,2013-03-06 13:30:00,
2013-03-06 05:40:00,51.3,24.5,29.81,SW,225,12.0,20.0,35,0.00,CLR,,0.00,WeatherDisplay:10.37,2013-03-06 13:40:00,
2013-03-06 05:50:00,51.2,25.8,29.80,SW,236,17.0,24.0,37,0.00,CLR,,0.00,WeatherDisplay:10.37,2013-03-06 13:50:00,
2013-03-06 06:00:00,51.3,25.9,29.80,SW,234,14.0,23.0,37,0.00,CLR,,0.00,WeatherDisplay:10.37,2013-03-06 14:00:00,
2013-03-06 06:10:00,51.1,26.3,29.79,SW,221,16.0,23.0,38,0.00,CLR,,0.00,WeatherDisplay:10.37,2013-03-06 14:10:00,
2013-03-06 06:20:00,51.6,27.4,29.79,WSW,248,14.0,21.0,39,0.00,CLR,,0.00,WeatherDisplay:10.37,2013-03-06 14:20:00,
2013-03-06 06:30:00,47.9,28.1,29.81,WNW,285,0.0,7.0,46,0.00,CLR,,0.00,WeatherDisplay:10.37,2013-03-06 14:30:00,
2013-03-06 06:40:00,47.1,27.9,29.83,WNW,292,1.0,6.0,47,0.00,CLR,,0.00,WeatherDisplay:10.37,2013-03-06 14:40:00,
2013-03-06 06:50:00,50.1,26.7,29.82,SSW,192,9.0,18.0,40,0.00,CLR,,0.00,WeatherDisplay:10.37,2013-03-06 14:50:00,
2013-03-06 07:00:00,49.4,27.2,29.82,South,178,9.0,20.0,42,0.00,CLR,,0.00,WeatherDisplay:10.37,2013-03-06 15:00:00,
2013-03-06 07:05:00,49.8,27.0,29.82,South,184,6.0,20.0,41,0.00,CLR,,0.00,WeatherDisplay:10.37,2013-03-06 15:05:00,
2013-03-06 07:10:00,49.9,27.7,29.82,South,179,8.0,20.0,42,0.00,CLR,,0.00,WeatherDisplay:10.37,2013-03-06 15:10:00,
2013-03-06 07:20:00,50.1,28.5,29.82,South,178,8.0,14.0,43,0.00,CLR,,0.00,WeatherDisplay:10.37,2013-03-06 15:20:00,
2013-03-06 07:30:00,51.4,29.0,29.83,South,176,3.0,14.0,42,0.00,CLR,,0.00,WeatherDisplay:10.37,2013-03-06 15:30:00,
2013-03-06 07:40:00,54.1,30.3,29.82,SSW,205,13.0,20.0,40,0.00,CLR,,0.00,WeatherDisplay:10.37,2013-03-06 15:40:00,
2013-03-06 07:50:00,55.3,29.4,29.83,SW,217,13.0,17.0,37,0.00,CLR,,0.00,WeatherDisplay:10.37,2013-03-06 15:50:00,
2013-03-06 08:00:00,55.5,30.3,29.82,SW,214,12.0,16.0,38,0.00,CLR,,0.00,WeatherDisplay:10.37,2013-03-06 16:00:00,
2013-03-06 08:05:00,55.6,29.7,29.82,SW,222,9.0,20.0,37,0.00,CLR,,0.00,WeatherDisplay:10.37,2013-03-06 16:05:00,
2013-03-06 08:10:00,55.9,30.6,29.82,SW,234,13.0,20.0,38,0.00,CLR,,0.00,WeatherDisplay:10.37,2013-03-06 16:10:00,
2013-03-06 08:20:00,56.6,30.6,29.82,SW,215,13.0,26.0,37,0.00,CLR,,0.00,WeatherDisplay:10.37,2013-03-06 16:20:00,
2013-03-06 08:30:00,57.0,30.3,29.83,SW,235,9.0,18.0,36,0.00,CLR,,0.00,WeatherDisplay:10.37,2013-03-06 16:30:00,
2013-03-06 08:40:00,57.0,29.6,29.83,SW,225,6.0,8.0,35,0.00,CLR,,0.00,WeatherDisplay:10.37,2013-03-06 16:40:00,
2013-03-06 08:50:00,57.4,30.6,29.83,SW,231,18.0,23.0,36,0.00,CLR,,0.00,WeatherDisplay:10.37,2013-03-06 16:50:00,
2013-03-06 08:55:00,57.4,30.6,29.83,SW,215,16.0,26.0,36,0.00,CLR,,0.00,WeatherDisplay:10.37,2013-03-06 16:55:00,
2013-03-06 09:05:00,58.0,29.8,29.84,WSW,242,5.0,20.0,34,0.00,CLR,,0.00,WeatherDisplay:10.37,2013-03-06 17:05:00,
2013-03-06 09:10:00,58.4,30.1,29.83,WSW,242,15.0,24.0,34,0.00,CLR,,0.00,WeatherDisplay:10.37,2013-03-06 17:10:00,
2013-03-06 09:20:00,58.3,30.8,29.83,SW,233,22.0,32.0,35,0.00,CLR,,0.00,WeatherDisplay:10.37,2013-03-06 17:20:00,
2013-03-06 09:30:00,58.5,30.2,29.83,SW,225,18.0,28.0,34,0.00,CLR,,0.00,WeatherDisplay:10.37,2013-03-06 17:30:00,
2013-03-06 09:40:00,58.8,30.4,29.82,SW,226,21.0,30.0,34,0.00,CLR,,0.00,WeatherDisplay:10.37,2013-03-06 17:40:00,
2013-03-06 09:50:00,58.9,29.8,29.82,SW,227,21.0,25.0,33,0.00,CLR,,0.00,WeatherDisplay:10.37,2013-03-06 17:50:00,
2013-03-06 10:00:00,59.6,30.5,29.82,SW,231,15.0,24.0,33,0.00,CLR,,0.00,WeatherDisplay:10.37,2013-03-06 18:00:00,
2013-03-06 10:10:00,58.3,29.3,29.82,WSW,237,16.0,23.0,33,0.00,CLR,,0.00,WeatherDisplay:10.37,2013-03-06 18:10:00,
2013-03-06 10:15:00,58.4,30.1,29.82,SW,236,16.0,23.0,34,0.00,CLR,,0.00,WeatherDisplay:10.37,2013-03-06 18:15:00,
2013-03-06 10:20:00,59.5,30.4,29.81,SW,232,20.0,26.0,33,0.00,CLR,,0.00,WeatherDisplay:10.37,2013-03-06 18:20:00,
2013-03-06 10:30:00,59.8,28.3,29.82,WSW,250,16.0,24.0,30,0.00,CLR,,0.00,WeatherDisplay:10.37,2013-03-06 18:30:00,
2013-03-06 10:40:00,59.8,29.0,29.82,WSW,241,21.0,33.0,31,0.00,CLR,,0.00,WeatherDisplay:10.37,2013-03-06 18:40:00,
2013-03-06 10:50:00,59.5,28.8,29.82,WSW,243,18.0,23.0,31,0.00,CLR,,0.00,WeatherDisplay:10.37,2013-03-06 18:50:00,
2013-03-06 11:00:00,59.3,28.7,29.83,WSW,244,20.0,28.0,31,0.00,CLR,,0.00,WeatherDisplay:10.37,2013-03-06 19:00:00,
2013-03-06 11:05:00,59.8,29.1,29.82,WSW,250,16.0,29.0,31,0.00,CLR,,0.00,WeatherDisplay:10.37,2013-03-06 19:05:00,
2013-03-06 11:10:00,59.6,28.9,29.82,WSW,248,16.0,26.0,31,0.00,CLR,,0.00,WeatherDisplay:10.37,2013-03-06 19:10:00,
2013-03-06 11:20:00,59.8,29.1,29.82,WSW,242,18.0,30.0,31,0.00,CLR,,0.00,WeatherDisplay:10.37,2013-03-06 19:20:00,
2013-03-06 11:30:00,59.9,27.5,29.83,WSW,253,22.0,31.0,29,0.00,CLR,,0.00,WeatherDisplay:10.37,2013-03-06 19:30:00,
2013-03-06 11:40:00,59.5,27.2,29.82,WSW,248,18.0,23.0,29,0.00,CLR,,0.00,WeatherDisplay:10.37,2013-03-06 19:40:00,
2013-03-06 11:50:00,60.7,27.4,29.82,WSW,246,18.0,24.0,28,0.00,CLR,,0.00,WeatherDisplay:10.37,2013-03-06 19:50:00,
2013-03-06 12:00:00,61.5,28.0,29.82,WSW,241,16.0,27.0,28,0.00,CLR,,0.00,WeatherDisplay:10.37,2013-03-06 20:00:00,
2013-03-06 12:10:00,59.6,28.1,29.81,West,263,16.0,25.0,30,0.00,CLR,,0.00,WeatherDisplay:10.37,2013-03-06 20:10:00,
2013-03-06 12:20:00,59.8,28.3,29.81,WSW,257,16.0,24.0,30,0.00,CLR,,0.00,WeatherDisplay:10.37,2013-03-06 20:20:00,
2013-03-06 12:30:00,60.1,27.7,29.81,WSW,252,14.0,26.0,29,0.00,CLR,,0.00,WeatherDisplay:10.37,2013-03-06 20:30:00,
2013-03-06 12:40:00,60.5,26.3,29.81,WSW,256,17.0,22.0,27,0.00,CLR,,0.00,WeatherDisplay:10.37,2013-03-06 20:40:00,
2013-03-06 12:50:00,59.8,26.6,29.81,West,262,13.0,23.0,28,0.00,CLR,,0.00,WeatherDisplay:10.37,2013-03-06 20:50:00,
2013-03-06 13:00:00,61.0,26.7,29.81,WSW,242,17.0,28.0,27,0.00,CLR,,0.00,WeatherDisplay:10.37,2013-03-06 21:00:00,
2013-03-06 13:05:00,60.7,27.3,29.81,WSW,247,15.0,23.0,28,0.00,CLR,,0.00,WeatherDisplay:10.37,2013-03-06 21:05:00,
2013-03-06 13:10:00,60.5,27.2,29.81,WSW,249,17.0,27.0,28,0.00,CLR,,0.00,WeatherDisplay:10.37,2013-03-06 21:10:00,
2013-03-06 13:20:00,61.1,27.7,29.81,WSW,255,17.0,25.0,28,0.00,CLR,,0.00,WeatherDisplay:10.37,2013-03-06 21:20:00,
2013-03-06 13:30:00,61.2,26.9,29.81,WSW,245,23.0,30.0,27,0.00,CLR,,0.00,WeatherDisplay:10.37,2013-03-06 21:30:00,
2013-03-06 13:40:00,61.5,28.0,29.81,WSW,240,16.0,29.0,28,0.00,CLR,,0.00,WeatherDisplay:10.37,2013-03-06 21:40:00,
2013-03-06 13:50:00,60.2,26.9,29.81,SW,235,22.0,29.0,28,0.00,CLR,,0.00,WeatherDisplay:10.37,2013-03-06 21:50:00,
2013-03-06 14:00:00,60.4,26.3,29.80,SW,236,22.0,31.0,27,0.00,CLR,,0.00,WeatherDisplay:10.37,2013-03-06 22:00:00,
2013-03-06 14:10:00,59.8,27.5,29.80,WSW,238,22.0,27.0,29,0.00,CLR,,0.00,WeatherDisplay:10.37,2013-03-06 22:10:00,
2013-03-06 14:20:00,60.5,27.2,29.79,SW,228,23.0,33.0,28,0.00,CLR,,0.00,WeatherDisplay:10.37,2013-03-06 22:20:00,
2013-03-06 14:30:00,60.3,27.1,29.80,SW,231,23.0,31.0,28,0.00,CLR,,0.00,WeatherDisplay:10.37,2013-03-06 22:30:00,
2013-03-06 14:40:00,59.9,27.5,29.80,SW,230,22.0,33.0,29,0.00,CLR,,0.00,WeatherDisplay:10.37,2013-03-06 22:40:00,
2013-03-06 14:50:00,59.5,28.0,29.80,SW,217,21.0,32.0,30,0.00,CLR,,0.00,WeatherDisplay:10.37,2013-03-06 22:50:00,
2013-03-06 15:00:00,59.9,27.5,29.80,SW,219,24.0,33.0,29,0.00,CLR,,0.00,WeatherDisplay:10.37,2013-03-06 23:00:00,
2013-03-06 15:05:00,59.7,28.2,29.80,SW,221,23.0,33.0,30,0.00,CLR,,0.00,WeatherDisplay:10.37,2013-03-06 23:05:00,
2013-03-06 15:10:00,59.3,27.8,29.80,SW,226,21.0,32.0,30,0.00,CLR,,0.00,WeatherDisplay:10.37,2013-03-06 23:10:00,
2013-03-06 15:20:00,59.3,27.0,29.80,SW,229,22.0,32.0,29,0.00,CLR,,0.00,WeatherDisplay:10.37,2013-03-06 23:20:00,
2013-03-06 15:30:00,59.0,26.7,29.77,SW,226,25.0,33.0,29,0.00,,,0.00,WeatherDisplay:10.37,2013-03-06 23:30:00,
2013-03-06 15:40:00,58.7,25.6,29.77,SW,230,26.0,35.0,28,0.00,CLR,,0.00,WeatherDisplay:10.37,2013-03-06 23:40:00,
2013-03-06 15:50:00,58.7,25.6,29.77,SW,218,24.0,33.0,28,0.00,CLR,,0.00,WeatherDisplay:10.37,2013-03-06 23:50:00,
2013-03-06 16:00:00,58.7,25.6,29.77,SW,225,22.0,27.0,28,0.00,CLR,,0.00,WeatherDisplay:10.37,2013-03-07 00:00:00,
2013-03-06 16:05:00,58.4,25.4,29.77,SW,221,23.0,32.0,28,0.00,CLR,,0.00,WeatherDisplay:10.37,2013-03-07 00:05:00,
2013-03-06 16:10:00,58.3,25.3,29.78,SW,225,23.0,28.0,28,0.00,CLR,,0.00,WeatherDisplay:10.37,2013-03-07 00:10:00,
2013-03-06 16:20:00,58.1,25.9,29.78,SW,226,16.0,26.0,29,0.00,CLR,,0.00,WeatherDisplay:10.37,2013-03-07 00:20:00,
2013-03-06 16:30:00,57.6,25.5,29.77,SW,231,17.0,26.0,29,0.00,CLR,,0.00,WeatherDisplay:10.37,2013-03-07 00:30:00,
2013-03-06 16:40:00,57.4,26.2,29.77,WSW,237,24.0,29.0,30,0.00,CLR,,0.00,WeatherDisplay:10.37,2013-03-07 00:40:00,
2013-03-06 16:50:00,56.9,27.3,29.77,SW,217,23.0,31.0,32,0.00,CLR,,0.00,WeatherDisplay:10.37,2013-03-07 00:50:00,
2013-03-06 17:00:00,56.9,27.3,29.77,SW,219,22.0,28.0,32,0.00,CLR,,0.00,WeatherDisplay:10.37,2013-03-07 01:00:00,
2013-03-06 17:05:00,56.6,27.0,29.77,SW,219,20.0,25.0,32,0.00,CLR,,0.00,WeatherDisplay:10.37,2013-03-07 01:05:00,
2013-03-06 17:10:00,56.3,27.5,29.78,SW,217,16.0,26.0,33,0.00,CLR,,0.00,WeatherDisplay:10.37,2013-03-07 01:10:00,
2013-03-06 17:20:00,56.0,27.3,29.78,SW,217,18.0,25.0,33,0.00,CLR,,0.00,WeatherDisplay:10.37,2013-03-07 01:20:00,
2013-03-06 17:30:00,55.6,27.6,29.78,SW,232,12.0,15.0,34,0.00,CLR,,0.00,WeatherDisplay:10.37,2013-03-07 01:30:00,
2013-03-06 17:40:00,55.1,27.9,29.77,WSW,243,15.0,26.0,35,0.00,CLR,,0.00,WeatherDisplay:10.37,2013-03-07 01:40:00,
2013-03-06 17:50:00,54.7,27.5,29.75,SW,230,22.0,28.0,35,0.00,CLR,,0.00,WeatherDisplay:10.37,2013-03-07 01:50:00,
2013-03-06 18:00:00,54.4,28.6,29.75,SSW,211,22.0,31.0,37,0.00,CLR,,0.00,WeatherDisplay:10.37,2013-03-07 02:00:00,
2013-03-06 18:05:00,54.4,27.3,29.77,SW,222,22.0,28.0,35,0.00,CLR,,0.00,WeatherDisplay:10.37,2013-03-07 02:05:00,
2013-03-06 18:10:00,54.2,27.1,29.77,SW,226,16.0,24.0,35,0.00,CLR,,0.00,WeatherDisplay:10.37,2013-03-07 02:10:00,
2013-03-06 18:20:00,53.9,28.2,29.77,SW,215,21.0,29.0,37,0.00,CLR,,0.00,WeatherDisplay:10.37,2013-03-07 02:20:00,
2013-03-06 18:30:00,53.8,28.8,29.77,SSW,209,22.0,29.0,38,0.00,CLR,,0.00,WeatherDisplay:10.37,2013-03-07 02:30:00,
2013-03-06 18:40:00,53.6,29.2,29.77,SSW,211,21.0,31.0,39,0.00,CLR,,0.00,WeatherDisplay:10.37,2013-03-07 02:40:00,
2013-03-06 18:50:00,53.6,28.6,29.77,SSW,209,26.0,33.0,38,0.00,CLR,,0.00,WeatherDisplay:10.37,2013-03-07 02:50:00,
2013-03-06 19:00:00,53.6,27.3,29.76,SW,232,21.0,28.0,36,0.00,CLR,,0.00,WeatherDisplay:10.37,2013-03-07 03:00:00,
2013-03-06 19:10:00,53.2,27.6,29.76,SW,226,22.0,31.0,37,0.00,CLR,,0.00,WeatherDisplay:10.37,2013-03-07 03:10:00,
2013-03-06 19:20:00,53.3,28.3,29.76,SW,229,26.0,33.0,38,0.00,CLR,,0.00,WeatherDisplay:10.37,2013-03-07 03:20:00,
2013-03-06 19:30:00,53.1,28.1,29.73,SW,225,17.0,28.0,38,0.00,CLR,,0.00,WeatherDisplay:10.37,2013-03-07 03:30:00,
2013-03-06 19:40:00,53.2,27.6,29.74,SW,226,28.0,33.0,37,0.00,CLR,,0.00,WeatherDisplay:10.37,2013-03-07 03:40:00,
2013-03-06 19:50:00,52.9,27.9,29.74,SW,220,18.0,29.0,38,0.00,CLR,,0.00,WeatherDisplay:10.37,2013-03-07 03:50:00,
2013-03-06 20:00:00,53.0,27.4,29.73,SW,218,22.0,31.0,37,0.00,CLR,,0.00,WeatherDisplay:10.37,2013-03-07 04:00:00,
2013-03-06 20:05:00,53.1,27.5,29.73,SW,216,22.0,31.0,37,0.00,CLR,,0.00,WeatherDisplay:10.37,2013-03-07 04:05:00,
2013-03-06 20:10:00,52.6,27.7,29.74,SW,215,17.0,27.0,38,0.00,CLR,,0.00,WeatherDisplay:10.37,2013-03-07 04:10:00,
2013-03-06 20:20:00,52.2,27.9,29.74,SSW,203,14.0,24.0,39,0.00,CLR,,0.00,WeatherDisplay:10.37,2013-03-07 04:20:00,
2013-03-06 20:30:00,52.2,28.0,29.73,SSW,211,17.0,29.0,39,0.00,CLR,,0.00,WeatherDisplay:10.37,2013-03-07 04:30:00,
2013-03-06 20:40:00,52.0,27.2,29.72,SSW,209,16.0,23.0,38,0.00,CLR,,0.00,WeatherDisplay:10.37,2013-03-07 04:40:00,
2013-03-06 20:50:00,51.9,25.8,29.72,SSW,208,18.0,25.0,36,0.00,CLR,,0.00,WeatherDisplay:10.37,2013-03-07 04:50:00,
2013-03-06 21:00:00,52.1,25.2,29.73,SW,214,22.0,29.0,35,0.00,CLR,,0.00,WeatherDisplay:10.37,2013-03-07 05:00:00,
2013-03-06 21:05:00,51.9,26.4,29.73,SSW,210,18.0,26.0,37,0.00,CLR,,0.00,WeatherDisplay:10.37,2013-03-07 05:05:00,
2013-03-06 21:10:00,51.1,27.6,29.73,SSW,211,17.0,26.0,40,0.00,CLR,,0.00,WeatherDisplay:10.37,2013-03-07 05:10:00,
2013-03-06 21:20:00,51.4,26.6,29.74,SW,216,23.0,29.0,38,0.00,CLR,,0.00,WeatherDisplay:10.37,2013-03-07 05:20:00,
2013-03-06 21:30:00,51.3,25.9,29.74,SW,214,13.0,20.0,37,0.00,CLR,,0.00,WeatherDisplay:10.37,2013-03-07 05:30:00,
2013-03-06 21:35:00,51.1,25.7,29.74,SSW,210,15.0,23.0,37,0.00,CLR,,0.00,WeatherDisplay:10.37,2013-03-07 05:35:00,
2013-03-06 21:40:00,51.1,25.7,29.74,SSW,205,14.0,21.0,37,0.00,CLR,,0.00,WeatherDisplay:10.37,2013-03-07 05:40:00,
2013-03-06 21:50:00,50.0,28.4,29.74,SSW,201,15.0,22.0,43,0.00,CLR,,0.00,WeatherDisplay:10.37,2013-03-07 05:50:00,
2013-03-06 22:00:00,49.8,29.3,29.74,SSW,202,16.0,23.0,45,0.00,CLR,,0.00,WeatherDisplay:10.37,2013-03-07 06:00:00,
2013-03-06 22:05:00,49.8,29.3,29.74,SSW,198,13.0,23.0,45,0.00,CLR,,0.00,WeatherDisplay:10.37,2013-03-07 06:05:00,
2013-03-06 22:10:00,49.6,29.1,29.74,SSW,198,10.0,21.0,45,0.00,CLR,,0.00,WeatherDisplay:10.37,2013-03-07 06:10:00,
2013-03-06 22:20:00,49.5,29.0,29.74,SSW,204,16.0,23.0,45,0.00,CLR,,0.00,WeatherDisplay:10.37,2013-03-07 06:20:00,
2013-03-06 22:30:00,49.6,28.6,29.74,SSW,199,15.0,25.0,44,0.00,CLR,,0.00,WeatherDisplay:10.37,2013-03-07 06:30:00,
2013-03-06 22:40:00,49.4,29.0,29.74,SSW,201,16.0,22.0,45,0.00,CLR,,0.00,WeatherDisplay:10.37,2013-03-07 06:40:00,
2013-03-06 22:50:00,49.2,29.3,29.74,SSW,207,14.0,23.0,46,0.00,CLR,,0.00,WeatherDisplay:10.37,2013-03-07 06:50:00,
2013-03-06 23:00:00,49.5,30.1,29.74,SSW,208,17.0,24.0,47,0.00,CLR,,0.00,WeatherDisplay:10.37,2013-03-07 07:00:00,
2013-03-06 23:05:00,49.5,29.6,29.74,SSW,207,17.0,24.0,46,0.00,CLR,,0.00,WeatherDisplay:10.37,2013-03-07 07:05:00,
2013-03-06 23:10:00,49.5,29.6,29.74,SSW,208,16.0,24.0,46,0.00,CLR,,0.00,WeatherDisplay:10.37,2013-03-07 07:10:00,
2013-03-06 23:20:00,49.6,29.6,29.74,SSW,208,20.0,27.0,46,0.00,CLR,,0.00,WeatherDisplay:10.37,2013-03-07 07:20:00,
2013-03-06 23:30:00,48.5,31.7,29.74,SSW,211,20.0,27.0,52,0.00,CLR,,0.00,WeatherDisplay:10.37,2013-03-07 07:30:00,
2013-03-06 23:40:00,48.0,32.6,29.75,SSW,206,18.0,26.0,55,0.00,CLR,,0.00,WeatherDisplay:10.37,2013-03-07 07:40:00,
2013-03-06 23:45:00,48.3,32.4,29.74,SSW,206,20.0,27.0,54,0.00,CLR,,0.00,WeatherDisplay:10.37,2013-03-07 07:45:00,
2013-03-06 23:50:00,48.8,32.4,29.74,SSW,210,18.0,27.0,53,0.00,CLR,,0.00,WeatherDisplay:10.37,2013-03-07 07:50:00,